Year,Month,Day,Hour,Minute,Value (Times are PST for temperature in C)
2009,07,31,00,00,20.20
2009,07,31,00,01,20.20
2009,07,31,00,02,20.10
2009,07,31,00,03,20.10
2009,07,31,00,04,20.10
2009,07,31,00,05,20.10
2009,07,31,00,06,20.10
2009,07,31,00,07,20.10
2009,07,31,00,08,20.10
2009,07,31,00,09,20.10
2009,07,31,00,10,20.10
2009,07,31,00,11,20.10
2009,07,31,00,12,20.00
2009,07,31,00,13,20.00
2009,07,31,00,14,20.00
2009,07,31,00,15,20.00
2009,07,31,00,16,19.90
2009,07,31,00,17,19.90
2009,07,31,00,18,19.90
2009,07,31,00,19,19.80
2009,07,31,00,20,19.80
2009,07,31,00,21,19.80
2009,07,31,00,22,19.70
2009,07,31,00,23,19.70
2009,07,31,00,24,19.70
2009,07,31,00,25,19.70
2009,07,31,00,26,19.70
2009,07,31,00,27,19.70
2009,07,31,00,28,19.70
2009,07,31,00,29,19.70
2009,07,31,00,30,19.70
2009,07,31,00,31,19.70
2009,07,31,00,32,19.70
2009,07,31,00,33,19.70
2009,07,31,00,34,19.70
2009,07,31,00,35,19.70
2009,07,31,00,36,19.70
2009,07,31,00,37,19.60
2009,07,31,00,38,19.60
2009,07,31,00,39,19.60
2009,07,31,00,40,19.50
2009,07,31,00,41,19.50
2009,07,31,00,42,19.50
2009,07,31,00,43,19.40
2009,07,31,00,44,19.40
2009,07,31,00,45,19.40
2009,07,31,00,46,19.40
2009,07,31,00,47,19.40
2009,07,31,00,48,19.40
2009,07,31,00,49,19.40
2009,07,31,00,50,19.40
2009,07,31,00,51,19.40
2009,07,31,00,52,19.40
2009,07,31,00,53,19.40
2009,07,31,00,54,19.40
2009,07,31,00,55,19.40
2009,07,31,00,56,19.40
2009,07,31,00,57,19.50
2009,07,31,00,58,19.50
2009,07,31,00,59,19.50
2009,07,31,01,00,19.50
2009,07,31,01,01,19.50
2009,07,31,01,02,19.50
2009,07,31,01,03,19.50
2009,07,31,01,04,19.50
2009,07,31,01,05,19.50
2009,07,31,01,06,19.50
2009,07,31,01,07,19.60
2009,07,31,01,08,19.70
2009,07,31,01,09,19.70
2009,07,31,01,10,19.70
2009,07,31,01,11,19.70
2009,07,31,01,12,19.70
2009,07,31,01,13,19.70
2009,07,31,01,14,19.70
2009,07,31,01,15,19.70
2009,07,31,01,16,19.80
2009,07,31,01,17,19.80
2009,07,31,01,18,19.70
2009,07,31,01,19,19.70
2009,07,31,01,20,19.70
2009,07,31,01,21,19.70
2009,07,31,01,22,19.70
2009,07,31,01,23,19.70
2009,07,31,01,24,19.70
2009,07,31,01,25,19.70
2009,07,31,01,26,19.70
2009,07,31,01,27,19.60
2009,07,31,01,28,19.60
2009,07,31,01,29,19.60
2009,07,31,01,30,19.60
2009,07,31,01,31,19.60
2009,07,31,01,32,19.60
2009,07,31,01,33,19.60
2009,07,31,01,34,19.60
2009,07,31,01,35,19.60
2009,07,31,01,36,19.60
2009,07,31,01,37,19.60
2009,07,31,01,38,19.50
2009,07,31,01,39,19.50
2009,07,31,01,40,19.50
2009,07,31,01,41,19.40
2009,07,31,01,42,19.40
2009,07,31,01,43,19.40
2009,07,31,01,44,19.40
2009,07,31,01,45,19.50
2009,07,31,01,46,19.40
2009,07,31,01,47,19.40
2009,07,31,01,48,19.40
2009,07,31,01,49,19.40
2009,07,31,01,50,19.40
2009,07,31,01,51,19.40
2009,07,31,01,52,19.40
2009,07,31,01,53,19.40
2009,07,31,01,54,19.30
2009,07,31,01,55,19.20
2009,07,31,01,56,19.20
2009,07,31,01,57,19.10
2009,07,31,01,58,19.10
2009,07,31,01,59,19.00
2009,07,31,02,00,19.00
2009,07,31,02,01,18.90
2009,07,31,02,02,18.90
2009,07,31,02,03,18.90
2009,07,31,02,04,18.90
2009,07,31,02,05,18.90
2009,07,31,02,06,18.80
2009,07,31,02,07,18.80
2009,07,31,02,08,18.80
2009,07,31,02,09,18.80
2009,07,31,02,10,18.80
2009,07,31,02,11,18.80
2009,07,31,02,12,18.80
2009,07,31,02,13,18.80
2009,07,31,02,14,18.80
2009,07,31,02,15,18.80
2009,07,31,02,16,18.70
2009,07,31,02,17,18.70
2009,07,31,02,18,18.70
2009,07,31,02,19,18.70
2009,07,31,02,20,18.70
2009,07,31,02,21,18.60
2009,07,31,02,22,18.60
2009,07,31,02,23,18.60
2009,07,31,02,24,18.50
2009,07,31,02,25,18.50
2009,07,31,02,26,18.40
2009,07,31,02,27,18.40
2009,07,31,02,28,18.40
2009,07,31,02,29,18.30
2009,07,31,02,30,18.30
2009,07,31,02,31,18.30
2009,07,31,02,32,18.30
2009,07,31,02,33,18.30
2009,07,31,02,34,18.20
2009,07,31,02,35,18.20
2009,07,31,02,36,18.20
2009,07,31,02,37,18.20
2009,07,31,02,38,18.20
2009,07,31,02,39,18.10
2009,07,31,02,40,18.10
2009,07,31,02,41,18.10
2009,07,31,02,42,18.00
2009,07,31,02,43,18.00
2009,07,31,02,44,18.00
2009,07,31,02,45,17.90
2009,07,31,02,46,17.90
2009,07,31,02,47,17.90
2009,07,31,02,48,17.80
2009,07,31,02,49,17.80
2009,07,31,02,50,17.80
2009,07,31,02,51,17.80
2009,07,31,02,52,17.80
2009,07,31,02,53,17.80
2009,07,31,02,54,17.70
2009,07,31,02,55,17.70
2009,07,31,02,56,17.60
2009,07,31,02,57,17.60
2009,07,31,02,58,17.60
2009,07,31,02,59,17.50
2009,07,31,03,00,17.50
2009,07,31,03,01,17.50
2009,07,31,03,02,17.40
2009,07,31,03,03,17.40
2009,07,31,03,04,17.30
2009,07,31,03,05,17.30
2009,07,31,03,06,17.30
2009,07,31,03,07,17.30
2009,07,31,03,08,17.30
2009,07,31,03,09,17.20
2009,07,31,03,10,17.20
2009,07,31,03,11,17.20
2009,07,31,03,12,17.10
2009,07,31,03,13,17.00
2009,07,31,03,14,17.00
2009,07,31,03,15,16.90
2009,07,31,03,16,16.90
2009,07,31,03,17,16.80
2009,07,31,03,18,16.80
2009,07,31,03,19,16.80
2009,07,31,03,20,16.80
2009,07,31,03,21,16.80
2009,07,31,03,22,16.70
2009,07,31,03,23,16.70
2009,07,31,03,24,16.70
2009,07,31,03,25,16.60
2009,07,31,03,26,16.60
2009,07,31,03,27,16.60
2009,07,31,03,28,16.60
2009,07,31,03,29,16.60
2009,07,31,03,30,16.50
2009,07,31,03,31,16.50
2009,07,31,03,32,16.50
2009,07,31,03,33,16.50
2009,07,31,03,34,16.50
2009,07,31,03,35,16.50
2009,07,31,03,36,16.40
2009,07,31,03,37,16.40
2009,07,31,03,38,16.40
2009,07,31,03,39,16.40
2009,07,31,03,40,16.40
2009,07,31,03,41,16.40
2009,07,31,03,42,16.40
2009,07,31,03,43,16.40
2009,07,31,03,44,16.40
2009,07,31,03,45,16.50
2009,07,31,03,46,16.50
2009,07,31,03,47,16.50
2009,07,31,03,48,16.50
2009,07,31,03,49,16.50
2009,07,31,03,50,16.50
2009,07,31,03,51,16.50
2009,07,31,03,52,16.50
2009,07,31,03,53,16.50
2009,07,31,03,54,16.50
2009,07,31,03,55,16.50
2009,07,31,03,56,16.50
2009,07,31,03,57,16.50
2009,07,31,03,58,16.50
2009,07,31,03,59,16.50
2009,07,31,04,00,16.50
2009,07,31,04,01,16.50
2009,07,31,04,02,16.50
2009,07,31,04,03,16.50
2009,07,31,04,04,16.50
2009,07,31,04,05,16.40
2009,07,31,04,06,16.40
2009,07,31,04,07,16.40
2009,07,31,04,08,16.40
2009,07,31,04,09,16.40
2009,07,31,04,10,16.40
2009,07,31,04,11,16.40
2009,07,31,04,12,16.30
2009,07,31,04,13,16.30
2009,07,31,04,14,16.30
2009,07,31,04,15,16.30
2009,07,31,04,16,16.30
2009,07,31,04,17,16.30
2009,07,31,04,18,16.30
2009,07,31,04,19,16.20
2009,07,31,04,20,16.20
2009,07,31,04,21,16.20
2009,07,31,04,22,16.20
2009,07,31,04,23,16.20
2009,07,31,04,24,16.20
2009,07,31,04,25,16.20
2009,07,31,04,26,16.10
2009,07,31,04,27,16.10
2009,07,31,04,28,16.10
2009,07,31,04,29,16.10
2009,07,31,04,30,16.10
2009,07,31,04,31,16.10
2009,07,31,04,32,16.00
2009,07,31,04,33,16.00
2009,07,31,04,34,16.00
2009,07,31,04,35,15.90
2009,07,31,04,36,15.90
2009,07,31,04,37,15.90
2009,07,31,04,38,15.90
2009,07,31,04,39,15.90
2009,07,31,04,40,15.90
2009,07,31,04,41,15.90
2009,07,31,04,42,15.90
2009,07,31,04,43,15.80
2009,07,31,04,44,15.80
2009,07,31,04,45,15.80
2009,07,31,04,46,15.80
2009,07,31,04,47,15.80
2009,07,31,04,48,15.80
2009,07,31,04,49,15.70
2009,07,31,04,50,15.70
2009,07,31,04,51,15.70
2009,07,31,04,52,15.70
2009,07,31,04,53,15.70
2009,07,31,04,54,15.70
2009,07,31,04,55,15.60
2009,07,31,04,56,15.60
2009,07,31,04,57,15.60
2009,07,31,04,58,15.60
2009,07,31,04,59,15.60
2009,07,31,05,00,15.50
2009,07,31,05,01,15.50
2009,07,31,05,02,15.50
2009,07,31,05,03,15.50
2009,07,31,05,04,15.40
2009,07,31,05,05,15.40
2009,07,31,05,06,15.40
2009,07,31,05,07,15.40
2009,07,31,05,08,15.40
2009,07,31,05,09,15.30
2009,07,31,05,10,15.30
2009,07,31,05,11,15.30
2009,07,31,05,12,15.30
2009,07,31,05,13,15.30
2009,07,31,05,14,15.30
2009,07,31,05,15,15.20
2009,07,31,05,16,15.20
2009,07,31,05,17,15.20
2009,07,31,05,18,15.20
2009,07,31,05,19,15.20
2009,07,31,05,20,15.10
2009,07,31,05,21,15.10
2009,07,31,05,22,15.10
2009,07,31,05,23,15.00
2009,07,31,05,24,15.00
2009,07,31,05,25,15.00
2009,07,31,05,26,15.00
2009,07,31,05,27,15.00
2009,07,31,05,28,15.00
2009,07,31,05,29,15.00
2009,07,31,05,30,15.00
2009,07,31,05,31,15.00
2009,07,31,05,32,15.00
2009,07,31,05,33,15.00
2009,07,31,05,34,15.00
2009,07,31,05,35,15.00
2009,07,31,05,36,15.00
2009,07,31,05,37,15.00
2009,07,31,05,38,15.00
2009,07,31,05,39,15.00
2009,07,31,05,40,15.00
2009,07,31,05,41,15.00
2009,07,31,05,42,15.00
2009,07,31,05,43,15.00
2009,07,31,05,44,15.00
2009,07,31,05,45,14.90
2009,07,31,05,46,14.90
2009,07,31,05,47,14.90
2009,07,31,05,48,14.80
2009,07,31,05,49,14.80
2009,07,31,05,50,14.80
2009,07,31,05,51,14.80
2009,07,31,05,52,14.80
2009,07,31,05,53,14.80
2009,07,31,05,54,14.80
2009,07,31,05,55,14.70
2009,07,31,05,56,14.70
2009,07,31,05,57,14.70
2009,07,31,05,58,14.70
2009,07,31,05,59,14.70
2009,07,31,06,00,14.70
2009,07,31,06,01,14.70
2009,07,31,06,02,14.70
2009,07,31,06,03,14.70
2009,07,31,06,04,14.70
2009,07,31,06,05,14.70
2009,07,31,06,06,14.60
2009,07,31,06,07,14.60
2009,07,31,06,08,14.60
2009,07,31,06,09,14.60
2009,07,31,06,10,14.60
2009,07,31,06,11,14.60
2009,07,31,06,12,14.60
2009,07,31,06,13,14.60
2009,07,31,06,14,14.60
2009,07,31,06,15,14.60
2009,07,31,06,16,14.60
2009,07,31,06,17,14.60
2009,07,31,06,18,14.60
2009,07,31,06,19,14.60
2009,07,31,06,20,14.60
2009,07,31,06,21,14.60
2009,07,31,06,22,14.60
2009,07,31,06,23,14.70
2009,07,31,06,24,14.70
2009,07,31,06,25,14.70
2009,07,31,06,26,14.70
2009,07,31,06,27,14.70
2009,07,31,06,28,14.70
2009,07,31,06,29,14.70
2009,07,31,06,30,14.70
2009,07,31,06,31,14.70
2009,07,31,06,32,14.80
2009,07,31,06,33,14.80
2009,07,31,06,34,14.80
2009,07,31,06,35,14.90
2009,07,31,06,36,14.90
2009,07,31,06,37,15.00
2009,07,31,06,38,15.00
2009,07,31,06,39,15.00
2009,07,31,06,40,15.00
2009,07,31,06,41,15.00
2009,07,31,06,42,15.00
2009,07,31,06,43,15.00
2009,07,31,06,44,15.10
2009,07,31,06,45,15.20
2009,07,31,06,46,15.20
2009,07,31,06,47,15.20
2009,07,31,06,48,15.30
2009,07,31,06,49,15.30
2009,07,31,06,50,15.30
2009,07,31,06,51,15.30
2009,07,31,06,52,15.40
2009,07,31,06,53,15.40
2009,07,31,06,54,15.40
2009,07,31,06,55,15.40
2009,07,31,06,56,15.50
2009,07,31,06,57,15.50
2009,07,31,06,58,15.60
2009,07,31,06,59,15.60
2009,07,31,07,00,15.60
2009,07,31,07,01,15.70
2009,07,31,07,02,15.70
2009,07,31,07,03,15.70
2009,07,31,07,04,15.70
2009,07,31,07,05,15.80
2009,07,31,07,06,15.80
2009,07,31,07,07,15.80
2009,07,31,07,08,15.90
2009,07,31,07,09,15.90
2009,07,31,07,10,16.00
2009,07,31,07,11,16.00
2009,07,31,07,12,16.10
2009,07,31,07,13,16.20
2009,07,31,07,14,16.30
2009,07,31,07,15,16.40
2009,07,31,07,16,16.50
2009,07,31,07,17,16.60
2009,07,31,07,18,16.60
2009,07,31,07,19,16.70
2009,07,31,07,20,16.80
2009,07,31,07,21,16.80
2009,07,31,07,22,16.90
2009,07,31,07,23,16.90
2009,07,31,07,24,17.00
2009,07,31,07,25,17.00
2009,07,31,07,26,17.10
2009,07,31,07,27,17.10
2009,07,31,07,28,17.10
2009,07,31,07,29,17.10
2009,07,31,07,30,17.10
2009,07,31,07,31,17.10
2009,07,31,07,32,17.10
2009,07,31,07,33,17.20
2009,07,31,07,34,17.20
2009,07,31,07,35,17.20
2009,07,31,07,36,17.20
2009,07,31,07,37,17.20
2009,07,31,07,38,17.20
2009,07,31,07,39,17.20
2009,07,31,07,40,17.20
2009,07,31,07,41,17.20
2009,07,31,07,42,17.30
2009,07,31,07,43,17.30
2009,07,31,07,44,17.30
2009,07,31,07,45,17.40
2009,07,31,07,46,17.50
2009,07,31,07,47,17.50
2009,07,31,07,48,17.60
2009,07,31,07,49,17.70
2009,07,31,07,50,17.70
2009,07,31,07,51,17.70
2009,07,31,07,52,17.70
2009,07,31,07,53,17.70
2009,07,31,07,54,17.70
2009,07,31,07,55,17.70
2009,07,31,07,56,17.70
2009,07,31,07,57,17.70
2009,07,31,07,58,17.80
2009,07,31,07,59,17.80
2009,07,31,08,00,17.90
2009,07,31,08,01,17.90
2009,07,31,08,02,18.00
2009,07,31,08,03,18.10
2009,07,31,08,04,18.20
2009,07,31,08,05,18.20
2009,07,31,08,06,18.30
2009,07,31,08,07,18.30
2009,07,31,08,08,18.40
2009,07,31,08,09,18.50
2009,07,31,08,10,18.50
2009,07,31,08,11,18.60
2009,07,31,08,12,18.70
2009,07,31,08,13,18.80
2009,07,31,08,14,18.90
2009,07,31,08,15,18.90
2009,07,31,08,16,19.00
2009,07,31,08,17,19.10
2009,07,31,08,18,19.10
2009,07,31,08,19,19.10
2009,07,31,08,20,19.20
2009,07,31,08,21,19.20
2009,07,31,08,22,19.30
2009,07,31,08,23,19.20
2009,07,31,08,24,19.20
2009,07,31,08,25,19.10
2009,07,31,08,26,19.10
2009,07,31,08,27,19.00
2009,07,31,08,28,19.00
2009,07,31,08,29,19.00
2009,07,31,08,30,19.00
2009,07,31,08,31,19.00
2009,07,31,08,32,19.10
2009,07,31,08,33,19.10
2009,07,31,08,34,19.20
2009,07,31,08,35,19.30
2009,07,31,08,36,19.30
2009,07,31,08,37,19.40
2009,07,31,08,38,19.50
2009,07,31,08,39,19.50
2009,07,31,08,40,19.50
2009,07,31,08,41,19.40
2009,07,31,08,42,19.40
2009,07,31,08,43,19.30
2009,07,31,08,44,19.20
2009,07,31,08,45,19.10
2009,07,31,08,46,19.00
2009,07,31,08,47,18.90
2009,07,31,08,48,18.90
2009,07,31,08,49,18.90
2009,07,31,08,50,18.90
2009,07,31,08,51,18.90
2009,07,31,08,52,18.90
2009,07,31,08,53,19.00
2009,07,31,08,54,19.00
2009,07,31,08,55,18.90
2009,07,31,08,56,18.80
2009,07,31,08,57,18.70
2009,07,31,08,58,18.70
2009,07,31,08,59,18.70
2009,07,31,09,00,18.80
2009,07,31,09,01,18.90
2009,07,31,09,02,19.00
2009,07,31,09,03,19.10
2009,07,31,09,04,19.20
2009,07,31,09,05,19.20
2009,07,31,09,06,19.30
2009,07,31,09,07,19.30
2009,07,31,09,08,19.20
2009,07,31,09,09,19.20
2009,07,31,09,10,19.20
2009,07,31,09,11,19.10
2009,07,31,09,12,19.00
2009,07,31,09,13,19.00
2009,07,31,09,14,19.00
2009,07,31,09,15,19.00
2009,07,31,09,16,19.10
2009,07,31,09,17,19.10
2009,07,31,09,18,19.10
2009,07,31,09,19,19.10
2009,07,31,09,20,19.20
2009,07,31,09,21,19.20
2009,07,31,09,22,19.30
2009,07,31,09,23,19.30
2009,07,31,09,24,19.30
2009,07,31,09,25,19.20
2009,07,31,09,26,19.20
2009,07,31,09,27,19.20
2009,07,31,09,28,19.20
2009,07,31,09,29,19.10
2009,07,31,09,30,19.10
2009,07,31,09,31,19.00
2009,07,31,09,32,19.00
2009,07,31,09,33,18.90
2009,07,31,09,34,18.90
2009,07,31,09,35,18.90
2009,07,31,09,36,18.90
2009,07,31,09,37,18.90
2009,07,31,09,38,18.90
2009,07,31,09,39,18.90
2009,07,31,09,40,18.80
2009,07,31,09,41,18.90
2009,07,31,09,42,18.90
2009,07,31,09,43,19.00
2009,07,31,09,44,19.10
2009,07,31,09,45,19.20
2009,07,31,09,46,19.30
2009,07,31,09,47,19.40
2009,07,31,09,48,19.50
2009,07,31,09,49,19.60
2009,07,31,09,50,19.70
2009,07,31,09,51,19.60
2009,07,31,09,52,19.70
2009,07,31,09,53,19.70
2009,07,31,09,54,19.80
2009,07,31,09,55,19.70
2009,07,31,09,56,19.70
2009,07,31,09,57,19.70
2009,07,31,09,58,19.70
2009,07,31,09,59,19.60
2009,07,31,10,00,19.60
2009,07,31,10,01,19.50
2009,07,31,10,02,19.50
2009,07,31,10,03,19.60
2009,07,31,10,04,19.60
2009,07,31,10,05,19.70
2009,07,31,10,06,19.80
2009,07,31,10,07,19.90
2009,07,31,10,08,19.90
2009,07,31,10,09,19.90
2009,07,31,10,10,19.90
2009,07,31,10,11,19.90
2009,07,31,10,12,19.90
2009,07,31,10,13,19.90
2009,07,31,10,14,20.00
2009,07,31,10,15,20.00
2009,07,31,10,16,20.00
2009,07,31,10,17,20.00
2009,07,31,10,18,20.10
2009,07,31,10,19,20.30
2009,07,31,10,20,20.40
2009,07,31,10,21,20.70
2009,07,31,10,22,20.80
2009,07,31,10,23,20.80
2009,07,31,10,24,20.80
2009,07,31,10,25,20.80
2009,07,31,10,26,20.80
2009,07,31,10,27,20.70
2009,07,31,10,28,20.60
2009,07,31,10,29,20.60
2009,07,31,10,30,20.70
2009,07,31,10,31,20.80
2009,07,31,10,32,20.80
2009,07,31,10,33,20.80
2009,07,31,10,34,20.70
2009,07,31,10,35,20.60
2009,07,31,10,36,20.60
2009,07,31,10,37,20.60
2009,07,31,10,38,20.60
2009,07,31,10,39,20.50
2009,07,31,10,40,20.40
2009,07,31,10,41,20.40
2009,07,31,10,42,20.40
2009,07,31,10,43,20.40
2009,07,31,10,44,20.40
2009,07,31,10,45,20.50
2009,07,31,10,46,20.40
2009,07,31,10,47,20.40
2009,07,31,10,48,20.40
2009,07,31,10,49,20.30
2009,07,31,10,50,20.30
2009,07,31,10,51,20.20
2009,07,31,10,52,20.20
2009,07,31,10,53,20.10
2009,07,31,10,54,20.00
2009,07,31,10,55,20.00
2009,07,31,10,56,19.80
2009,07,31,10,57,19.70
2009,07,31,10,58,19.70
2009,07,31,10,59,19.70
2009,07,31,11,00,19.70
2009,07,31,11,01,19.70
2009,07,31,11,02,19.70
2009,07,31,11,03,19.70
2009,07,31,11,04,19.70
2009,07,31,11,05,19.80
2009,07,31,11,06,19.80
2009,07,31,11,07,19.90
2009,07,31,11,08,19.90
2009,07,31,11,09,20.00
2009,07,31,11,10,20.00
2009,07,31,11,11,20.10
2009,07,31,11,12,20.20
2009,07,31,11,13,20.20
2009,07,31,11,14,20.30
2009,07,31,11,15,20.40
2009,07,31,11,16,20.40
2009,07,31,11,17,20.50
2009,07,31,11,18,20.70
2009,07,31,11,19,20.80
2009,07,31,11,20,20.80
2009,07,31,11,21,20.80
2009,07,31,11,22,20.80
2009,07,31,11,23,20.90
2009,07,31,11,24,21.00
2009,07,31,11,25,21.10
2009,07,31,11,26,21.20
2009,07,31,11,27,21.30
2009,07,31,11,28,21.30
2009,07,31,11,29,21.30
2009,07,31,11,30,21.30
2009,07,31,11,31,21.30
2009,07,31,11,32,21.40
2009,07,31,11,33,21.40
2009,07,31,11,34,21.40
2009,07,31,11,35,21.40
2009,07,31,11,36,21.40
2009,07,31,11,37,21.40
2009,07,31,11,38,21.40
2009,07,31,11,39,21.40
2009,07,31,11,40,21.40
2009,07,31,11,41,21.40
2009,07,31,11,42,21.30
2009,07,31,11,43,21.30
2009,07,31,11,44,21.30
2009,07,31,11,45,21.30
2009,07,31,11,46,21.20
2009,07,31,11,47,21.10
2009,07,31,11,48,21.00
2009,07,31,11,49,20.90
2009,07,31,11,50,20.90
2009,07,31,11,51,20.90
2009,07,31,11,52,20.80
2009,07,31,11,53,20.80
2009,07,31,11,54,20.70
2009,07,31,11,55,20.70
2009,07,31,11,56,20.70
2009,07,31,11,57,20.80
2009,07,31,11,58,20.70
2009,07,31,11,59,20.70
2009,07,31,12,00,20.70
2009,07,31,12,01,20.70
2009,07,31,12,02,20.70
2009,07,31,12,03,20.70
2009,07,31,12,04,20.70
2009,07,31,12,05,20.80
2009,07,31,12,06,20.90
2009,07,31,12,07,20.90
2009,07,31,12,08,21.00
2009,07,31,12,09,21.00
2009,07,31,12,10,21.10
2009,07,31,12,11,21.10
2009,07,31,12,12,21.20
2009,07,31,12,13,21.20
2009,07,31,12,14,21.30
2009,07,31,12,15,21.30
2009,07,31,12,16,21.30
2009,07,31,12,17,21.30
2009,07,31,12,18,21.20
2009,07,31,12,19,21.20
2009,07,31,12,20,21.20
2009,07,31,12,21,21.20
2009,07,31,12,22,21.20
2009,07,31,12,23,21.20
2009,07,31,12,24,21.30
2009,07,31,12,25,21.30
2009,07,31,12,26,21.40
2009,07,31,12,27,21.40
2009,07,31,12,28,21.30
2009,07,31,12,29,21.30
2009,07,31,12,30,21.30
2009,07,31,12,31,21.20
2009,07,31,12,32,21.20
2009,07,31,12,33,21.20
2009,07,31,12,34,21.10
2009,07,31,12,35,21.10
2009,07,31,12,36,21.20
2009,07,31,12,37,21.20
2009,07,31,12,38,21.40
2009,07,31,12,39,21.50
2009,07,31,12,40,21.60
2009,07,31,12,41,21.70
2009,07,31,12,42,21.80
2009,07,31,12,43,21.80
2009,07,31,12,44,21.90
2009,07,31,12,45,21.90
2009,07,31,12,46,22.00
2009,07,31,12,47,22.20
2009,07,31,12,48,22.20
2009,07,31,12,49,22.20
2009,07,31,12,50,21.90
2009,07,31,12,51,21.80
2009,07,31,12,52,21.60
2009,07,31,12,53,21.30
2009,07,31,12,54,21.10
2009,07,31,12,55,21.00
2009,07,31,12,56,20.90
2009,07,31,12,57,20.90
2009,07,31,12,58,21.00
2009,07,31,12,59,21.10
2009,07,31,13,00,21.20
2009,07,31,13,01,21.40
2009,07,31,13,02,21.50
2009,07,31,13,03,21.70
2009,07,31,13,04,21.80
2009,07,31,13,05,22.00
2009,07,31,13,06,22.10
2009,07,31,13,07,22.30
2009,07,31,13,08,22.40
2009,07,31,13,09,22.50
2009,07,31,13,10,22.60
2009,07,31,13,11,22.60
2009,07,31,13,12,22.80
2009,07,31,13,13,22.90
2009,07,31,13,14,23.10
2009,07,31,13,15,23.30
2009,07,31,13,16,23.40
2009,07,31,13,17,23.50
2009,07,31,13,18,23.60
2009,07,31,13,19,23.70
2009,07,31,13,20,23.80
2009,07,31,13,21,24.00
2009,07,31,13,22,24.20
2009,07,31,13,23,24.30
2009,07,31,13,24,24.20
2009,07,31,13,25,24.10
2009,07,31,13,26,24.10
2009,07,31,13,27,24.20
2009,07,31,13,28,24.20
2009,07,31,13,29,24.30
2009,07,31,13,30,24.40
2009,07,31,13,31,24.50
2009,07,31,13,32,24.60
2009,07,31,13,33,24.60
2009,07,31,13,34,24.70
2009,07,31,13,35,24.70
2009,07,31,13,36,24.80
2009,07,31,13,37,24.80
2009,07,31,13,38,25.00
2009,07,31,13,39,25.00
2009,07,31,13,40,24.90
2009,07,31,13,41,24.80
2009,07,31,13,42,24.70
2009,07,31,13,43,24.70
2009,07,31,13,44,24.60
2009,07,31,13,45,24.60
2009,07,31,13,46,24.50
2009,07,31,13,47,24.40
2009,07,31,13,48,24.30
2009,07,31,13,49,24.20
2009,07,31,13,50,24.20
2009,07,31,13,51,24.10
2009,07,31,13,52,24.20
2009,07,31,13,53,24.20
2009,07,31,13,54,24.20
2009,07,31,13,55,24.10
2009,07,31,13,56,24.20
2009,07,31,13,57,24.20
2009,07,31,13,58,24.30
2009,07,31,13,59,24.30
2009,07,31,14,00,24.40
2009,07,31,14,01,24.40
2009,07,31,14,02,24.30
2009,07,31,14,03,24.30
2009,07,31,14,04,24.30
2009,07,31,14,05,24.30
2009,07,31,14,06,24.30
2009,07,31,14,07,24.30
2009,07,31,14,08,24.20
2009,07,31,14,09,24.20
2009,07,31,14,10,24.30
2009,07,31,14,11,24.30
2009,07,31,14,12,24.30
2009,07,31,14,13,24.40
2009,07,31,14,14,24.40
2009,07,31,14,15,24.40
2009,07,31,14,16,24.50
2009,07,31,14,17,24.50
2009,07,31,14,18,24.60
2009,07,31,14,19,24.60
2009,07,31,14,20,24.70
2009,07,31,14,21,24.80
2009,07,31,14,22,24.80
2009,07,31,14,23,24.90
2009,07,31,14,24,25.00
2009,07,31,14,25,25.00
2009,07,31,14,26,24.90
2009,07,31,14,27,24.80
2009,07,31,14,28,24.70
2009,07,31,14,29,24.50
2009,07,31,14,30,24.40
2009,07,31,14,31,24.40
2009,07,31,14,32,24.30
2009,07,31,14,33,24.30
2009,07,31,14,34,24.30
2009,07,31,14,35,24.30
2009,07,31,14,36,24.20
2009,07,31,14,37,24.20
2009,07,31,14,38,24.10
2009,07,31,14,39,23.90
2009,07,31,14,40,23.80
2009,07,31,14,41,23.80
2009,07,31,14,42,23.70
2009,07,31,14,43,23.70
2009,07,31,14,44,23.70
2009,07,31,14,45,23.70
2009,07,31,14,46,23.70
2009,07,31,14,47,23.60
2009,07,31,14,48,23.60
2009,07,31,14,49,23.60
2009,07,31,14,50,23.70
2009,07,31,14,51,23.70
2009,07,31,14,52,23.80
2009,07,31,14,53,23.90
2009,07,31,14,54,24.00
2009,07,31,14,55,24.00
2009,07,31,14,56,24.10
2009,07,31,14,57,24.20
2009,07,31,14,58,24.30
2009,07,31,14,59,24.50
2009,07,31,15,00,24.60
2009,07,31,15,01,24.70
2009,07,31,15,02,24.80
2009,07,31,15,03,24.80
2009,07,31,15,04,24.80
2009,07,31,15,05,24.90
2009,07,31,15,06,24.90
2009,07,31,15,07,24.80
2009,07,31,15,08,24.80
2009,07,31,15,09,24.70
2009,07,31,15,10,24.60
2009,07,31,15,11,24.60
2009,07,31,15,12,24.50
2009,07,31,15,13,24.40
2009,07,31,15,14,24.30
2009,07,31,15,15,24.20
2009,07,31,15,16,24.10
2009,07,31,15,17,23.90
2009,07,31,15,18,23.80
2009,07,31,15,19,23.70
2009,07,31,15,20,23.60
2009,07,31,15,21,23.50
2009,07,31,15,22,23.50
2009,07,31,15,23,23.40
2009,07,31,15,24,23.40
2009,07,31,15,25,23.30
2009,07,31,15,26,23.30
2009,07,31,15,27,23.40
2009,07,31,15,28,23.40
2009,07,31,15,29,23.50
2009,07,31,15,30,23.60
2009,07,31,15,31,23.70
2009,07,31,15,32,23.70
2009,07,31,15,33,23.70
2009,07,31,15,34,23.70
2009,07,31,15,35,23.80
2009,07,31,15,36,23.80
2009,07,31,15,37,23.90
2009,07,31,15,38,24.00
2009,07,31,15,39,24.10
2009,07,31,15,40,24.10
2009,07,31,15,41,24.10
2009,07,31,15,42,24.10
2009,07,31,15,43,24.10
2009,07,31,15,44,24.10
2009,07,31,15,45,24.10
2009,07,31,15,46,24.20
2009,07,31,15,47,24.30
2009,07,31,15,48,24.30
2009,07,31,15,49,24.30
2009,07,31,15,50,24.30
2009,07,31,15,51,24.30
2009,07,31,15,52,24.40
2009,07,31,15,53,24.40
2009,07,31,15,54,24.30
2009,07,31,15,55,24.30
2009,07,31,15,56,24.40
2009,07,31,15,57,24.40
2009,07,31,15,58,24.50
2009,07,31,15,59,24.50
2009,07,31,16,00,24.40
2009,07,31,16,01,24.40
2009,07,31,16,02,24.30
2009,07,31,16,03,24.30
2009,07,31,16,04,24.30
2009,07,31,16,05,24.30
2009,07,31,16,06,24.40
2009,07,31,16,07,24.40
2009,07,31,16,08,24.50
2009,07,31,16,09,24.60
2009,07,31,16,10,24.60
2009,07,31,16,11,24.70
2009,07,31,16,12,24.80
2009,07,31,16,13,24.80
2009,07,31,16,14,24.90
2009,07,31,16,15,25.00
2009,07,31,16,16,25.10
2009,07,31,16,17,25.20
2009,07,31,16,18,25.30
2009,07,31,16,19,25.30
2009,07,31,16,20,25.20
2009,07,31,16,21,25.20
2009,07,31,16,22,25.20
2009,07,31,16,23,25.20
2009,07,31,16,24,25.20
2009,07,31,16,25,25.20
2009,07,31,16,26,25.20
2009,07,31,16,27,25.20
2009,07,31,16,28,25.20
2009,07,31,16,29,25.20
2009,07,31,16,30,25.20
2009,07,31,16,31,25.20
2009,07,31,16,32,25.20
2009,07,31,16,33,25.20
2009,07,31,16,34,25.20
2009,07,31,16,35,25.20
2009,07,31,16,36,25.20
2009,07,31,16,37,25.10
2009,07,31,16,38,25.10
2009,07,31,16,39,25.00
2009,07,31,16,40,25.00
2009,07,31,16,41,25.00
2009,07,31,16,42,24.90
2009,07,31,16,43,25.00
2009,07,31,16,44,25.00
2009,07,31,16,45,25.00
2009,07,31,16,46,25.00
2009,07,31,16,47,25.00
2009,07,31,16,48,25.00
2009,07,31,16,49,25.10
2009,07,31,16,50,25.20
2009,07,31,16,51,25.20
2009,07,31,16,52,25.30
2009,07,31,16,53,25.40
2009,07,31,16,54,25.50
2009,07,31,16,55,25.60
2009,07,31,16,56,25.60
2009,07,31,16,57,25.70
2009,07,31,16,58,25.70
2009,07,31,16,59,25.70
2009,07,31,17,00,25.60
2009,07,31,17,01,25.50
2009,07,31,17,02,25.30
2009,07,31,17,03,25.30
2009,07,31,17,04,25.20
2009,07,31,17,05,25.30
2009,07,31,17,06,25.30
2009,07,31,17,07,25.40
2009,07,31,17,08,25.50
2009,07,31,17,09,25.60
2009,07,31,17,10,25.60
2009,07,31,17,11,25.60
2009,07,31,17,12,25.60
2009,07,31,17,13,25.60
2009,07,31,17,14,25.70
2009,07,31,17,15,25.70
2009,07,31,17,16,25.80
2009,07,31,17,17,25.80
2009,07,31,17,18,25.90
2009,07,31,17,19,25.90